This demonstration page uses our WeatherBlox Daily Observations layout. Learn more.

41.55636, -103.73856

Hourly Observations for May 13, 2018

Temp ( °F °C ) Dew Point ( °F °C ) Humidity (%) Winds ( mph kmh ) Pressure ( in mb ) Visibility ( mi km ) Precip ( " mm )
12:58 am 00:58 Mostly Cloudy with Light Showers 46 7.6 45 7.2 97 97 E 12 19 29.99 1016 0.5 0.80467 N/A
1:58 am 01:58 Mostly Cloudy with Light Rain 46 7.8 45 7.4 97 97 E 6 9 29.99 1016 3 4.82802 N/A
2:58 am 02:58 Mostly Cloudy with Fog 46 7.9 45 7.4 97 97 ENE 5 7 29.99 1016 3 4.82802 0.01 0.254
3:58 am 03:58 Mostly Cloudy with Light Rain 46 7.6 45 7.2 97 97 NE 7 11 29.99 1016 3 4.82802 N/A
4:58 am 04:58 Mostly Cloudy with Mist and Fog 45 7.2 44 6.8 97 97 NE 8 13 30.01 1016 5 8.0467 N/A
5:58 am 05:58 Mostly Cloudy with Fog 45 7.1 44 6.7 97 97 NE 7 11 30.02 1017 0.5 0.80467 0 0
6:58 am 06:58 Cloudy 45 7.2 44 6.8 97 97 ENE 7 11 30.04 1017 10 16.0934 N/A
7:58 am 07:58 Cloudy 46 8 46 7.6 97 97 ESE 6 9 30.04 1017 10 16.0934 N/A
8:58 am 08:58 Cloudy 48 8.8 47 8.5 98 98 SE 5 7 30.04 1017 10 16.0934 N/A
9:58 am 09:58 Cloudy 49 9.6 49 9.3 98 98 Calm 30.04 1017 10 16.0934 N/A
10:58 am 10:58 Cloudy 52 11.3 48 8.9 85 85 NW 6 9 30.04 1017 10 16.0934 N/A
11:58 am 11:58 Cloudy 55 12.5 49 9.3 81 81 N 7 11 30.02 1017 10 16.0934 N/A
12:58 pm 12:58 Cloudy 56 13.5 49 9.3 76 76 NW 5 7 30 1016 10 16.0934 N/A
1:58 pm 13:58 Cloudy 58 14.3 49 9.3 72 72 Calm 29.98 1015 10 16.0934 N/A
2:58 pm 14:58 Cloudy 58 14.4 50 9.8 74 74 NE 7 11 29.97 1015 10 16.0934 N/A
3:58 pm 15:58 Mostly Cloudy 60 15.6 50 10 70 70 E 8 13 29.94 1014 10 16.0934 N/A
4:58 pm 16:58 Mostly Cloudy 60 15.4 51 10.4 72 72 ENE 14 22 29.94 1014 10 16.0934 N/A
5:58 pm 17:58 Mostly Sunny 59 15 51 10.4 74 74 E 9 15 29.95 1014 10 16.0934 N/A
6:58 pm 18:58 Mostly Sunny 55 12.8 50 10.1 84 84 E 8 13 29.96 1015 10 16.0934 N/A
7:58 pm 19:58 Cloudy with Light Rain 54 12 51 10.3 89 89 E 10 17 29.98 1015 9 14.48406 N/A
8:58 pm 20:58 Cloudy with Light Showers 53 11.7 51 10.3 91 91 undefined N/A 30.02 1017 10 16.0934 0.02 0.508
9:58 pm 21:58 Cloudy with Rain 51 10.3 48 9.1 92 92 N 14 22 30.05 1018 10 16.0934 0.09 2.286
10:58 pm 22:58 Cloudy with Light Rain 50 10 49 9.2 95 95 N 13 20 30.03 1017 10 16.0934 0.07 1.778
11:58 pm 23:58 Cloudy with Light Rain 50 10.1 49 9.3 95 95 ESE 5 7 30.06 1018 10 16.0934 0.04 1.016

Powered by AerisWeather